This demonstration page uses our WeatherBlox Daily Observations layout. Learn more.

38.89511, -77.03637

Hourly Observations for March 7, 2015

Temp ( °F °C ) Dew Point ( °F °C ) Humidity (%) Winds ( mph kmh ) Pressure ( in mb ) Visibility ( mi km ) Precip ( " mm )
12:52 am 00:52 Clear 21 -6 12 -11 68 68 SW 3 6 30.42 1030 10 16.09344 0 0
1:52 am 01:52 Clear 21 -6 12 -11 68 68 SSW 3 6 30.42 1030 10 16.09344 0 0
2:52 am 02:52 Clear 21 -6 10 -12 63 63 SSW 3 6 30.39 1029 10 16.09344 0 0
3:52 am 03:52 Clear 19 -7 9 -13 63 63 SSW 5 7 30.39 1029 10 16.09344 0 0
4:52 am 04:52 Clear 19 -7 10 -12 68 68 SSW 3 6 30.36 1028 10 16.09344 0 0
5:52 am 05:52 Clear 19 -7 10 -12 68 68 SW 5 7 30.36 1028 10 16.09344 0 0
6:52 am 06:52 Sunny 19 -7 12 -11 73 73 SW 5 7 30.36 1028 10 16.09344 0 0
7:52 am 07:52 Mostly Sunny 21 -6 12 -11 68 68 SSW 5 7 30.36 1028 10 16.09344 0 0
8:52 am 08:52 Partly Cloudy 25 -4 16 -9 69 69 S 8 13 30.36 1028 10 16.09344 0 0
9:52 am 09:52 Mostly Cloudy 28 -2 18 -8 64 64 S 10 17 30.36 1028 10 16.09344 0 0
10:52 am 10:52 Mostly Cloudy 30 -1 18 -8 59 59 S 10 17 30.33 1027 10 16.09344 0 0
11:52 am 11:52 Partly Cloudy 36 2 19 -7 52 52 SSE 9 15 30.3 1026 10 16.09344 0 0
12:52 pm 12:52 Partly Cloudy 39 4 19 -7 45 45 S 10 17 30.27 1025 10 16.09344 0 0
1:52 pm 13:52 Mostly Cloudy 43 6 19 -7 39 39 S 10 17 30.21 1023 10 16.09344 0 0
2:52 pm 14:52 Mostly Cloudy 45 7 21 -6 39 39 SSW 10 17 30.21 1023 10 16.09344 0 0
3:52 pm 15:52 Partly Cloudy 46 8 21 -6 37 37 S 14 22 30.15 1021 10 16.09344 0 0
4:52 pm 16:52 Partly Cloudy 48 9 21 -6 34 34 SSW 18 30 30.12 1020 10 16.09344 0 0
5:52 pm 17:52 Mostly Sunny 46 8 25 -4 43 43 SSW 14 22 30.12 1020 10 16.09344 0 0
6:52 pm 18:52 Mostly Clear 43 6 27 -3 53 53 S 9 15 30.12 1020 10 16.09344 0 0
7:52 pm 19:52 Clear 43 6 27 -3 53 53 SSW 10 17 30.12 1020 10 16.09344 0 0
8:52 pm 20:52 Clear 41 5 27 -3 57 57 S 9 15 30.12 1020 10 16.09344 0 0
9:52 pm 21:52 Mostly Clear 43 6 27 -3 53 53 S 7 11 30.09 1019 10 16.09344 0 0
10:52 pm 22:52 Mostly Clear 43 6 27 -3 53 53 Calm 30.09 1019 10 16.09344 0 0
11:52 pm 23:52 Mostly Cloudy 45 7 27 -3 49 49 S 3 6 30.12 1020 10 16.09344 0 0

Powered by AerisWeather